Torna al catalogo

DMSP 5D-2 F13 DEB

AttivoSSO
NORAD 40575·DEBRIS·🇺🇸 United States

Lanciato Mar 24, 1995 da Vandenberg Space Force Base

Loading…

Prossimi Passaggi (prossime 24 ore)

TLE

AggiornatoSource: Space-Track

Epoca: Sep 14, 2026, 14:35 UTC

1 40575U 95015EJ  26257.60770748  .00004692  00000-0  11122-2 0  9992
2 40575  98.5885 313.1846 0010137 253.2558 106.7526 14.54467003597477

Traccia DMSP 5D-2 F13 DEB in tempo reale con AllMySat

Download on the App Store